GW4074 Weather Reports


Display with metric or nautical units.
time (UTC)temp
F
wind
direction
speed
MPH
gust
MPH
rain 1hr
in
rain 24hr
in
rain mn
in
humidity
%
barometer
mb
20260504234522 73 191 5.0 6.0 0.00 0.00 0.00 49 1010.3
20260504234019 73 131 4.0 4.0 0.00 0.00 0.00 49 1010.4
20260504233514 73 173 2.0 4.0 0.00 0.00 0.00 48 1010.5
20260504233011 73 132 3.0 4.0 0.00 0.00 0.00 49 1010.7
20260504232508 72 139 2.0 3.0 0.00 0.00 0.00 49 1010.4
20260504232006 73 138 2.0 3.0 0.00 0.00 0.00 47 1010.3
20260504231502 74 117 2.0 4.0 0.00 0.00 0.00 46 1010.5
20260504230958 74 125 2.0 4.0 0.00 0.00 0.00 45 1010.7
20260504230455 74 134 3.0 4.0 0.00 0.00 0.00 46 1010.3
20260504225954 75 122 3.0 4.0 0.00 0.00 0.00 45 1010.3
20260504225450 75 121 3.0 4.0 0.00 0.00 0.00 44 1010.7
20260504224947 75 197 0.0 3.0 0.00 0.00 0.00 43 1010.7
20260504224444 75 190 0.0 4.0 0.00 0.00 0.00 43 1010.9
20260504223941 75 157 3.0 5.0 0.00 0.00 0.00 43 1010.5
20260504223437 77 144 2.0 3.0 0.00 0.00 0.00 41 1010.7
20260504222933 77 122 4.0 4.0 0.00 0.00 0.00 42 1010.7
20260504222431 79 145 2.0 4.0 0.00 0.00 0.00 38 1010.7
20260504221928 78 180 1.0 4.0 0.00 0.00 0.00 38 1010.8
20260504221425 79 181 4.0 5.0 0.00 0.00 0.00 36 1010.9
20260504220922 77 120 2.0 3.0 0.00 0.00 0.00 39 1010.8
20260504220419 77 60 1.0 4.0 0.00 0.00 0.00 37 1011.0
20260504215916 77 134 2.0 5.0 0.00 0.00 0.00 39 1011.0
20260504215412 77 131 2.0 5.0 0.00 0.00 0.00 39 1011.2
20260504214909 78 147 2.0 2.0 0.00 0.00 0.00 39 1011.1
20260504214405 78 131 3.0 4.0 0.00 0.00 0.00 39 1010.8
20260504213902 77 190 3.0 4.0 0.00 0.00 0.00 40 1010.9
20260504213358 79 197 2.0 3.0 0.00 0.00 0.00 38 1011.0
20260504212855 78 236 1.0 4.0 0.00 0.00 0.00 39 1011.2
20260504212351 77 110 2.0 5.0 0.00 0.00 0.00 41 1011.2
20260504211849 76 137 2.0 3.0 0.00 0.00 0.00 42 1011.0
20260504211345 77 110 4.0 5.0 0.00 0.00 0.00 40 1011.2
20260504210843 78 145 2.0 4.0 0.00 0.00 0.00 41 1011.0
20260504210340 77 303 1.0 3.0 0.00 0.00 0.00 41 1011.1
20260504205837 76 185 2.0 6.0 0.00 0.00 0.00 41 1011.0
20260504205334 78 224 1.0 4.0 0.00 0.00 0.00 41 1011.1
20260504204832 78 192 4.0 5.0 0.00 0.00 0.00 41 1011.0
20260504204331 77 152 1.0 5.0 0.00 0.00 0.00 40 1011.1
20260504203830 77 158 1.0 5.0 0.00 0.00 0.00 38 1011.3
20260504203326 77 153 1.0 3.0 0.00 0.00 0.00 41 1011.3
20260504202822 78 187 5.0 5.0 0.00 0.00 0.00 37 1011.3
20260504202320 80 159 2.0 3.0 0.00 0.00 0.00 30 1011.0
20260504201816 79 136 2.0 3.0 0.00 0.00 0.00 35 1011.3
20260504201313 78 28 0.0 3.0 0.00 0.00 0.00 32 1011.1
20260504200811 78 283 3.0 4.0 0.00 0.00 0.00 32 1011.1
20260504200307 76 3 0.0 5.0 0.00 0.00 0.00 42 1011.2
20260504195803 78 147 2.0 2.0 0.00 0.00 0.00 39 1011.0
20260504195259 77 147 0.0 2.0 0.00 0.00 0.00 40 1011.0
20260504194756 77 145 2.0 3.0 0.00 0.00 0.00 41 1011.1
20260504194252 78 193 2.0 4.0 0.00 0.00 0.00 40 1011.2
20260504193749 77 191 1.0 2.0 0.00 0.00 0.00 39 1011.2
20260504193246 77 112 4.0 4.0 0.00 0.00 0.00 38 1011.0
20260504192744 77 325 0.0 2.0 0.00 0.00 0.00 38 1011.1
20260504192242 76 349 2.0 4.0 0.00 0.00 0.00 36 1011.1
20260504191741 76 283 2.0 8.0 0.00 0.00 0.00 39 1011.0
20260504191237 76 87 1.0 5.0 0.00 0.00 0.00 34 1011.0
20260504190732 77 4 2.0 3.0 0.00 0.00 0.00 40 1011.1
20260504190229 75 108 2.0 2.0 0.00 0.00 0.00 44 1011.0
20260504185726 74 174 4.0 5.0 0.00 0.00 0.00 44 1011.1
20260504185223 74 195 5.0 5.0 0.00 0.00 0.00 44 1011.2
20260504184719 74 138 2.0 6.0 0.00 0.00 0.00 46 1011.0
20260504184215 75 192 2.0 5.0 0.00 0.00 0.00 43 1011.1
20260504183711 74 230 3.0 4.0 0.00 0.00 0.00 45 1011.2
20260504183208 75 199 3.0 4.0 0.00 0.00 0.00 47 1011.1
20260504182706 74 185 2.0 2.0 0.00 0.00 0.00 47 1011.4
20260504182203 73 144 4.0 4.0 0.00 0.00 0.00 47 1011.4
20260504181700 72 180 1.0 5.0 0.00 0.00 0.00 47 1011.3
20260504181158 73 171 2.0 4.0 0.00 0.00 0.00 45 1011.2
20260504180657 73 180 3.0 6.0 0.00 0.00 0.00 44 1011.1
20260504180155 72 168 2.0 6.0 0.00 0.00 0.00 44 1011.2
20260504175652 72 122 2.0 4.0 0.00 0.00 0.00 48 1011.1
20260504175148 72 180 0.0 3.0 0.00 0.00 0.00 47 1010.9
20260504174647 71 126 4.0 5.0 0.00 0.00 0.00 48 1011.2
20260504174143 72 148 2.0 4.0 0.00 0.00 0.00 47 1011.0
20260504173640 71 116 2.0 3.0 0.00 0.00 0.00 50 1010.9
20260504173138 71 168 2.0 4.0 0.00 0.00 0.00 48 1011.0
20260504172634 71 139 3.0 6.0 0.00 0.00 0.00 48 1010.9
20260504172131 73 52 3.0 3.0 0.00 0.00 0.00 42 1011.1
20260504171627 72 149 2.0 6.0 0.00 0.00 0.00 41 1011.0
20260504171125 72 205 1.0 3.0 0.00 0.00 0.00 48 1011.1
20260504170620 72 227 0.0 2.0 0.00 0.00 0.00 40 1011.0
20260504170118 72 135 0.0 4.0 0.00 0.00 0.00 41 1011.1
20260504151004 66 89 0.0 7.0 0.00 0.00 0.00 48 1010.4
20260504150501 66 121 5.0 5.0 0.00 0.00 0.00 48 1010.4
20260504140922 65 119 4.0 7.0 0.00 0.00 0.00 49 1010.1
20260504140418 64 107 2.0 4.0 0.00 0.00 0.00 50 1010.1
20260504130344 62 115 2.0 4.0 0.00 0.00 0.00 39 1009.7
20260504120306 63 359 2.0 2.0 0.00 0.00 0.00 39 1009.8
20260504110230 65 359 1.0 2.0 0.00 0.00 0.00 33 1010.1
20260504100147 63 19 2.0 3.0 0.00 0.00 0.00 40 1009.9
20260504090110 67 299 0.0 3.0 0.00 0.00 0.00 33 1010.0
20260504081540 66 34 3.0 4.0 0.00 0.00 0.00 37 1010.0
20260504081036 66 6 3.0 4.0 0.00 0.00 0.00 37 1009.8
20260504080533 67 350 2.0 3.0 0.00 0.00 0.00 36 1009.9
20260504050347 68 34 2.0 3.0 0.00 0.00 0.00 33 1010.7
20260504045844 69 23 2.0 3.0 0.00 0.00 0.00 32 1010.7
20260504045343 68 8 1.0 2.0 0.00 0.00 0.00 32 1010.7
20260504044841 68 22 3.0 3.0 0.00 0.00 0.00 32 1010.5
20260504044338 68 335 2.0 2.0 0.00 0.00 0.00 34 1010.5
20260504043835 68 322 3.0 3.0 0.00 0.00 0.00 32 1010.7
20260504043332 68 353 2.0 3.0 0.00 0.00 0.00 33 1010.7
20260504042830 68 328 3.0 4.0 0.00 0.00 0.00 32 1010.4
20260504042326 68 322 4.0 5.0 0.00 0.00 0.00 33 1010.5
20260504041822 67 340 2.0 5.0 0.00 0.00 0.00 34 1010.8
20260504041318 67 355 2.0 4.0 0.00 0.00 0.00 34 1010.5
20260504040815 68 335 3.0 4.0 0.00 0.00 0.00 34 1010.4
20260504040313 68 16 2.0 4.0 0.00 0.00 0.00 33 1010.4
20260504035808 69 346 2.0 3.0 0.00 0.00 0.00 31 1010.3
20260504035306 69 357 2.0 4.0 0.00 0.00 0.00 31 1010.3
20260504034803 69 342 3.0 4.0 0.00 0.00 0.00 32 1010.3
20260504034300 69 334 2.0 4.0 0.00 0.00 0.00 31 1010.3
20260504033757 70 342 2.0 4.0 0.00 0.00 0.00 31 1010.4
20260504033255 71 324 3.0 4.0 0.00 0.00 0.00 31 1010.4
20260504032751 70 326 3.0 5.0 0.00 0.00 0.00 32 1010.5
20260504032248 71 324 3.0 4.0 0.00 0.00 0.00 33 1010.2
20260504031745 71 328 3.0 4.0 0.00 0.00 0.00 33 1010.3
20260504031243 71 355 1.0 4.0 0.00 0.00 0.00 32 1010.5
20260504030738 71 329 3.0 4.0 0.00 0.00 0.00 30 1010.4
20260504030236 72 339 2.0 4.0 0.00 0.00 0.00 30 1010.5
20260504025732 72 336 2.0 4.0 0.00 0.00 0.00 29 1010.4
20260504025229 72 320 3.0 4.0 0.00 0.00 0.00 29 1010.8
20260504024726 73 336 3.0 4.0 0.00 0.00 0.00 29 1010.5
20260504024223 73 345 2.0 4.0 0.00 0.00 0.00 28 1010.9
20260504023720 73 357 1.0 3.0 0.00 0.00 0.00 30 1010.8
20260504023215 73 11 0.0 3.0 0.00 0.00 0.00 29 1010.8
20260504022712 74 320 1.0 2.0 0.00 0.00 0.00 30 1010.9
20260504022208 74 320 0.0 2.0 0.00 0.00 0.00 29 1010.9
20260504021706 75 326 2.0 3.0 0.00 0.00 0.00 28 1011.0
20260504021202 75 5 1.0 3.0 0.00 0.00 0.00 29 1010.8
20260504020659 74 229 1.0 2.0 0.00 0.00 0.00 31 1010.9
20260504020155 75 339 2.0 2.0 0.00 0.00 0.00 30 1011.0
20260504015652 75 263 0.0 2.0 0.00 0.00 0.00 30 1011.2
20260504015148 75 152 2.0 2.0 0.00 0.00 0.00 29 1011.1
20260504014644 75 235 0.0 3.0 0.00 0.00 0.00 31 1011.1
20260504014141 75 286 0.0 3.0 0.00 0.00 0.00 32 1011.2
20260504013634 75 354 1.0 2.0 0.00 0.00 0.00 32 1011.2
20260504013131 75 230 2.0 3.0 0.00 0.00 0.00 33 1011.2
20260504012628 76 48 1.0 2.0 0.00 0.00 0.00 32 1011.3
20260504012126 76 183 2.0 5.0 0.00 0.00 0.00 32 1011.3
20260504011622 76 286 2.0 4.0 0.00 0.00 0.00 33 1011.3
20260504011119 77 16 2.0 4.0 0.00 0.00 0.00 32 1011.5
20260504010614 77 297 2.0 5.0 0.00 0.00 0.00 33 1011.5
20260504010111 78 273 1.0 2.0 0.00 0.00 0.00 32 1011.4
20260504005608 79 293 0.0 2.0 0.00 0.00 0.00 30 1011.5
20260504005105 80 232 1.0 3.0 0.00 0.00 0.00 29 1011.7
20260504004603 82 153 1.0 4.0 0.00 0.00 0.00 29 1011.6
20260504004059 81 262 2.0 3.0 0.00 0.00 0.00 29 1011.3
20260504003554 81 211 2.0 3.0 0.00 0.00 0.00 29 1011.7
20260504003051 81 0 1.0 3.0 0.00 0.00 0.00 29 1011.7
20260504002549 81 353 1.0 2.0 0.00 0.00 0.00 31 1011.5
20260504002046 80 44 0.0 2.0 0.00 0.00 0.00 29 1011.6
20260504001544 80 116 2.0 3.0 0.00 0.00 0.00 30 1011.8
20260504001039 81 0 0.0 3.0 0.00 0.00 0.00 30 1011.7
20260504000537 82 243 0.0 4.0 0.00 0.00 0.00 28 1011.6
20260504000034 81 249 3.0 3.0 0.00 0.00 0.00 27 1011.8
20260503235533 81 204 2.0 4.0 0.00 0.00 0.00 27 1011.8
20260503235029 81 256 2.0 4.0 0.00 0.00 0.00 28 1011.8